Oxford, NC

6:24 AM EDT on August 20, 2017 (GMT -0400)
Henderson-Oxford

Weather History for KHNZ - April, 2013

Change the Weather History Date:

Saturday, April 6, 2013

  Actual Average (KTDF) Record (KTDF)
Temperature  
Mean Temperature 50 °F -  
Max Temperature 61 °F 65 °F 87 °F (1967)
Min Temperature 40 °F 40 °F 26 °F (1992)
Degree Days  
Heating Degree Days 14    
Moisture  
Dew Point 28 °F    
Average Humidity 43    
Maximum Humidity 68    
Minimum Humidity 23    
Precipitation  
Precipitation 0.00 in - - ()
Sea Level Pressure  
Sea Level Pressure 30.20 in    
Wind  
Wind Speed 6 mph (ENE)    
Max Wind Speed 14 mph    
Max Gust Speed 20 mph    
Visibility 10 miles    
Events      
Averages and records for this station are not official NWS values.
T = Trace of Precipitation, MM = Missing Value Source: NWS Daily Summary

Daily Weather History Graph

Daily Weather History Graph

Search for Another Location

Airport or City:

Trip Planner

Search our weather history database for the weather conditions in past years. The results will help you decide how hot, cold, wet, or windy it might be!

Date:

Astronomy

Apr. 06, 2013 Rise Set
Actual Time 6:52 AM EDT 7:40 PM EDT
Civil Twilight 6:26 AM EDT 8:06 PM EDT
Nautical Twilight 5:55 AM EDT 8:37 PM EDT
Astronomical Twilight 5:24 AM EDT 9:09 PM EDT
Moon 4:29 AM EDT (4/6) 4:12 PM EDT (4/6)
Length of Visible Light 13h 40m
Length of Day
12h 47m
Waning Crescent, 15% of the Moon is Illuminated
Apr 6
Waning Crescent
Apr 10
New
Apr 18
First Quarter
Apr 25
Full
May 2
Last Quarter

Hourly Weather History & Observations

Time (EDT) Temp. Windchill Dew Point Humidity Pressure Visibility Wind Dir Wind Speed Gust Speed Precip Events Conditions
12:15 AM 48.7 °F - 33.3 °F 55% 30.01 in 10.0 mi WSW 3.5 mph - N/A   Clear
12:35 AM 47.7 °F - 33.3 °F 57% 30.01 in 10.0 mi West 4.6 mph - N/A   Clear
12:55 AM 50.5 °F - 31.5 °F 48% 30.02 in 10.0 mi NW 4.6 mph - N/A   Clear
1:15 AM 51.1 °F - 31.3 °F 47% 30.02 in 10.0 mi NW 6.9 mph - N/A   Clear
1:35 AM 50.2 °F - 31.6 °F 49% 30.02 in 10.0 mi NW 5.8 mph - N/A   Clear
1:55 AM 49.5 °F - 31.8 °F 51% 30.03 in 10.0 mi NNW 8.1 mph - N/A   Clear
2:15 AM 48.6 °F - 32.0 °F 53% 30.04 in 10.0 mi North 8.1 mph - N/A   Clear
2:35 AM 47.7 °F - 32.4 °F 55% 30.05 in 10.0 mi North 5.8 mph - N/A   Clear
2:55 AM 46.4 °F 43.5 °F 32.9 °F 59% 30.06 in 10.0 mi North 5.8 mph - N/A   Clear
3:15 AM 45.7 °F 42.7 °F 32.9 °F 61% 30.07 in 10.0 mi North 5.8 mph - N/A   Clear
3:35 AM 45.5 °F 43.2 °F 32.5 °F 61% 30.08 in 10.0 mi North 4.6 mph - N/A   Clear
3:55 AM 43.5 °F 40.9 °F 32.2 °F 64% 30.09 in 10.0 mi NE 4.6 mph - N/A   Clear
4:15 AM 42.8 °F 41.1 °F 32.9 °F 68% 30.10 in 10.0 mi NE 3.5 mph - N/A   Clear
4:35 AM 42.6 °F 39.9 °F 32.0 °F 66% 30.10 in 10.0 mi ENE 4.6 mph - N/A   Clear
4:55 AM 43.2 °F 40.5 °F 32.0 °F 65% 30.11 in 10.0 mi NE 4.6 mph - N/A   Clear
5:15 AM 43.5 °F 40.9 °F 32.4 °F 65% 30.12 in 10.0 mi NNE 4.6 mph - N/A   Clear
5:35 AM 43.3 °F 40.7 °F 32.0 °F 64% 30.12 in 10.0 mi NNE 4.6 mph - N/A   Clear
5:55 AM 42.8 °F 39.3 °F 32.0 °F 66% 30.14 in 10.0 mi NNE 5.8 mph - N/A   Clear
6:15 AM 42.4 °F 38.8 °F 31.1 °F 64% 30.15 in 10.0 mi NNE 5.8 mph - N/A   Clear
6:55 AM 41.5 °F 37.8 °F 29.7 °F 63% 30.19 in 10.0 mi NNE 5.8 mph - N/A   Clear
7:15 AM 40.8 °F 36.9 °F 29.8 °F 65% 30.20 in 10.0 mi NNE 5.8 mph - N/A   Clear
7:35 AM 41.5 °F 37.8 °F 29.3 °F 62% 30.21 in 10.0 mi NE 5.8 mph - N/A   Clear
7:55 AM 42.8 °F 38.6 °F 29.1 °F 58% 30.22 in 10.0 mi NE 6.9 mph - N/A   Clear
8:15 AM 44.1 °F 39.5 °F 29.8 °F 57% 30.23 in 10.0 mi NE 8.1 mph - N/A   Clear
8:35 AM 45.5 °F 40.3 °F 27.3 °F 49% 30.24 in 10.0 mi NE 10.4 mph 17.3 mph N/A   Clear
8:55 AM 46.4 °F 40.4 °F 23.5 °F 41% 30.24 in 10.0 mi NE 13.8 mph 19.6 mph N/A   Clear
9:15 AM 47.8 °F - 20.5 °F 34% 30.25 in 10.0 mi NE 10.4 mph 17.3 mph N/A   Clear
9:35 AM 48.6 °F - 20.8 °F 34% 30.26 in 10.0 mi NE 9.2 mph - N/A   Clear
9:55 AM 48.9 °F - 21.6 °F 34% 30.26 in 10.0 mi NNE 10.4 mph - N/A   Clear
10:15 AM 50.0 °F - 23.2 °F 35% 30.27 in 10.0 mi NNE 9.2 mph - N/A   Clear
10:55 AM 51.4 °F - 23.5 °F 34% 30.28 in 10.0 mi NE 6.9 mph - N/A   Clear
11:15 AM 52.7 °F - 22.1 °F 30% 30.28 in 10.0 mi ENE 9.2 mph - N/A   Clear
11:35 AM 53.8 °F - 22.1 °F 29% 30.28 in 10.0 mi ENE 8.1 mph - N/A   Clear
11:55 AM 53.8 °F - 20.3 °F 27% 30.29 in 10.0 mi East 8.1 mph - N/A   Clear
12:15 PM 54.9 °F - 21.7 °F 28% 30.29 in 10.0 mi ENE 8.1 mph - N/A   Clear
12:35 PM 55.2 °F - 21.0 °F 26% 30.29 in 10.0 mi ENE 6.9 mph - N/A   Clear
12:55 PM 55.8 °F - 22.3 °F 27% 30.28 in 10.0 mi East 8.1 mph - N/A   Clear
1:15 PM 57.4 °F - 24.8 °F 29% 30.27 in 10.0 mi ENE 6.9 mph - N/A   Clear
1:35 PM 57.4 °F - 23.4 °F 27% 30.27 in 10.0 mi NE 6.9 mph - N/A   Clear
1:55 PM 57.4 °F - 23.2 °F 27% 30.27 in 10.0 mi East 5.8 mph - N/A   Clear
2:15 PM 57.9 °F - 23.2 °F 26% 30.26 in 10.0 mi East 4.6 mph - N/A   Clear
2:35 PM 58.8 °F - 24.1 °F 26% 30.25 in 10.0 mi East 3.5 mph - N/A   Clear
2:55 PM 58.8 °F - 23.5 °F 26% 30.25 in 10.0 mi ESE 3.5 mph - N/A   Clear
3:15 PM 59.7 °F - 24.4 °F 26% 30.24 in 10.0 mi ENE 6.9 mph - N/A   Clear
3:55 PM 59.7 °F - 22.6 °F 24% 30.23 in 10.0 mi Calm Calm - N/A   Clear
4:15 PM 60.6 °F - 24.3 °F 25% 30.22 in 10.0 mi East 5.8 mph - N/A   Clear
4:35 PM 60.4 °F - 23.2 °F 24% 30.22 in 10.0 mi ENE 4.6 mph - N/A   Clear
4:55 PM 60.6 °F - 22.8 °F 23% 30.21 in 10.0 mi NE 3.5 mph - N/A   Clear
5:15 PM 60.8 °F - 22.8 °F 23% 30.21 in 10.0 mi Calm Calm - N/A   Clear
5:35 PM 61.2 °F - 23.0 °F 23% 30.21 in 10.0 mi ENE 4.6 mph - N/A   Clear
5:55 PM 61.0 °F - 23.0 °F 23% 30.22 in 10.0 mi ENE 4.6 mph - N/A   Clear
6:15 PM 61.0 °F - 23.2 °F 24% 30.22 in 10.0 mi East 3.5 mph - N/A   Clear
6:35 PM 60.1 °F - 23.7 °F 25% 30.22 in 10.0 mi East 5.8 mph - N/A   Clear
6:55 PM 58.6 °F - 26.2 °F 29% 30.22 in 10.0 mi East 5.8 mph - N/A   Clear
7:15 PM 56.7 °F - 27.0 °F 32% 30.22 in 10.0 mi East 3.5 mph - N/A   Clear
7:35 PM 55.8 °F - 26.8 °F 33% 30.22 in 10.0 mi East 3.5 mph - N/A   Clear
7:55 PM 55.4 °F - 25.5 °F 32% 30.23 in 10.0 mi East 4.6 mph - N/A   Clear
8:15 PM 53.8 °F - 27.0 °F 36% 30.23 in 10.0 mi ESE 4.6 mph - N/A   Clear
8:35 PM 52.3 °F - 28.9 °F 41% 30.24 in 10.0 mi East 3.5 mph - N/A   Clear
8:55 PM 52.5 °F - 27.7 °F 38% 30.25 in 10.0 mi ESE 4.6 mph - N/A   Clear
9:15 PM 52.9 °F - 28.8 °F 40% 30.25 in 10.0 mi ESE 6.9 mph - N/A   Clear
9:35 PM 52.2 °F - 29.3 °F 41% 30.26 in 10.0 mi East 8.1 mph - N/A   Clear
9:55 PM 50.9 °F - 31.8 °F 48% 30.27 in 10.0 mi ESE 11.5 mph 16.1 mph N/A   Clear
10:15 PM 49.6 °F - 33.3 °F 53% 30.27 in 10.0 mi ESE 9.2 mph - N/A   Clear
10:35 PM 48.6 °F - 34.0 °F 57% 30.28 in 10.0 mi ESE 6.9 mph - N/A   Clear
10:55 PM 47.8 °F - 33.8 °F 58% 30.28 in 10.0 mi ESE 8.1 mph - N/A   Clear
11:15 PM 47.3 °F - 32.5 °F 57% 30.28 in 10.0 mi ESE 9.2 mph - N/A   Clear
11:35 PM 46.4 °F 42.9 °F 31.8 °F 57% 30.28 in 10.0 mi ESE 6.9 mph - N/A   Clear
11:55 PM 45.7 °F 42.0 °F 30.9 °F 56% 30.28 in 10.0 mi SE 6.9 mph - N/A   Clear